ITY1157 LIRF-LICR

Flight info

Callsign ITY1157
Flight time 0h 47m
Altitude 29000
Route RIFFI DCT PNZ DCT ISKIA DCT SOR/N0373F190 Q58 FOSQA
Aircraft A319/M-SDE3FGHIRWY/LB1

Departure

Time 2026-05-04 12:57
Airport Rome–Fiumicino Leonardo da Vinci International Airport (LIRF)

Arrival

Time 2026-05-04 13:45
Airport Reggio Calabria Airport (LICR)
Time Latitude Longitude Altitude Speed Heading
2026-05-04 12:52 41.80396 12.26147 17 ft 12 kts 25°
2026-05-04 12:53 41.80473 12.26176 16 ft 11 kts
2026-05-04 12:53 41.80528 12.26239 16 ft 12 kts 67°
2026-05-04 12:53 41.80561 12.26359 18 ft 15 kts 70°
2026-05-04 12:53 41.80598 12.26493 16 ft 16 kts 70°
2026-05-04 12:54 41.80636 12.26631 16 ft 16 kts 69°
2026-05-04 12:54 41.80675 12.26772 14 ft 15 kts 70°
2026-05-04 12:54 41.80713 12.26911 14 ft 16 kts 70°
2026-05-04 12:54 41.80767 12.27038 13 ft 14 kts 29°
2026-05-04 12:55 41.80858 12.27017 13 ft 14 kts 340°
2026-05-04 12:55 41.80879 12.27007 13 ft 0 kts 340°
2026-05-04 12:55 41.80880 12.27006 13 ft 0 kts 340°
2026-05-04 12:55 41.80883 12.27005 13 ft 1 kts 340°
2026-05-04 12:56 41.80903 12.26995 14 ft 5 kts 340°
2026-05-04 12:56 41.80948 12.26969 13 ft 8 kts 323°
2026-05-04 12:56 41.80950 12.26898 13 ft 0 kts 251°
2026-05-04 12:57 41.80919 12.26783 13 ft 47 kts 250°
2026-05-04 12:57 41.80717 12.26055 20 ft 117 kts 250°
2026-05-04 12:57 41.80378 12.24826 194 ft 153 kts 248°
2026-05-04 12:57 41.80016 12.23495 882 ft 153 kts 247°
2026-05-04 12:58 41.79626 12.22137 1494 ft 158 kts 245°
2026-05-04 12:58 41.79103 12.20797 1938 ft 174 kts 226°
2026-05-04 12:58 41.78119 12.19724 2386 ft 192 kts 217°
2026-05-04 12:58 41.77045 12.18561 3154 ft 201 kts 218°
2026-05-04 12:59 41.75954 12.17381 3995 ft 202 kts 208°
2026-05-04 12:59 41.74632 12.16791 4724 ft 209 kts 184°
2026-05-04 12:59 41.73109 12.16849 5236 ft 228 kts 177°
2026-05-04 12:59 41.71435 12.16948 5732 ft 251 kts 178°
2026-05-04 13:00 41.69653 12.17043 6558 ft 260 kts 178°
2026-05-04 13:00 41.67830 12.17133 7452 ft 264 kts 178°
2026-05-04 13:00 41.65979 12.17222 8379 ft 268 kts 178°
2026-05-04 13:00 41.64103 12.17309 9285 ft 272 kts 179°
2026-05-04 13:01 41.62227 12.17391 10187 ft 275 kts 179°
2026-05-04 13:01 41.60249 12.17476 10662 ft 295 kts 179°
2026-05-04 13:01 41.58119 12.17569 11005 ft 316 kts 179°
2026-05-04 13:01 41.55881 12.17624 11658 ft 325 kts 185°
2026-05-04 13:02 41.53631 12.17187 12359 ft 331 kts 190°
2026-05-04 13:02 41.51299 12.17190 13081 ft 341 kts 174°
2026-05-04 13:02 41.48981 12.18047 13828 ft 351 kts 159°
2026-05-04 13:02 41.46856 12.19745 14498 ft 362 kts 143°
2026-05-04 13:03 41.45040 12.22116 15156 ft 368 kts 136°
2026-05-04 13:03 41.43258 12.24600 15812 ft 373 kts 136°
2026-05-04 13:03 41.41448 12.27110 16454 ft 378 kts 136°
2026-05-04 13:03 41.39609 12.29655 17102 ft 383 kts 136°
2026-05-04 13:04 41.37747 12.32227 17742 ft 388 kts 136°
2026-05-04 13:04 41.35862 12.34822 18384 ft 392 kts 136°
2026-05-04 13:04 41.33948 12.37451 18945 ft 397 kts 136°
2026-05-04 13:04 41.32017 12.40097 19526 ft 400 kts 136°
2026-05-04 13:05 41.30097 12.42727 20090 ft 404 kts 136°
2026-05-04 13:05 41.28131 12.45423 20671 ft 408 kts 136°
2026-05-04 13:05 41.26148 12.48140 21247 ft 411 kts 136°
2026-05-04 13:05 41.24148 12.50877 21821 ft 415 kts 136°
2026-05-04 13:06 41.22129 12.53635 22392 ft 418 kts 136°
2026-05-04 13:06 41.20091 12.56420 22954 ft 422 kts 136°
2026-05-04 13:06 41.18039 12.59229 23496 ft 425 kts 136°
2026-05-04 13:06 41.15970 12.62061 23972 ft 429 kts 136°
2026-05-04 13:07 41.13882 12.64920 24395 ft 433 kts 136°
2026-05-04 13:07 41.11776 12.67796 24795 ft 437 kts 136°
2026-05-04 13:07 41.09643 12.70700 25199 ft 441 kts 136°
2026-05-04 13:07 41.07490 12.73624 25582 ft 445 kts 136°
2026-05-04 13:08 41.05314 12.76574 25924 ft 450 kts 136°
2026-05-04 13:08 41.03112 12.79554 26289 ft 454 kts 136°
2026-05-04 13:08 41.00891 12.82562 26663 ft 458 kts 136°
2026-05-04 13:08 40.98687 12.85551 27030 ft 462 kts 136°
2026-05-04 13:09 40.96403 12.88648 27403 ft 466 kts 136°
2026-05-04 13:09 40.94172 12.91716 27765 ft 470 kts 133°
2026-05-04 13:09 40.92175 12.95175 28122 ft 476 kts 124°
2026-05-04 13:09 40.90580 12.99030 28477 ft 481 kts 114°
2026-05-04 13:10 40.89435 13.03198 28827 ft 484 kts 106°
2026-05-04 13:10 40.88455 13.07468 29109 ft 488 kts 106°
2026-05-04 13:10 40.87467 13.11728 29163 ft 477 kts 106°
2026-05-04 13:10 40.86497 13.15870 29166 ft 466 kts 106°
2026-05-04 13:11 40.85540 13.19944 29160 ft 462 kts 106°
2026-05-04 13:11 40.83641 13.28024 29164 ft 460 kts 106°
2026-05-04 13:12 40.81742 13.36079 29164 ft 459 kts 106°
2026-05-04 13:12 40.79848 13.44079 29161 ft 459 kts 106°
2026-05-04 13:13 40.77941 13.52129 29165 ft 459 kts 106°
2026-05-04 13:13 40.76031 13.60154 29166 ft 458 kts 106°
2026-05-04 13:14 40.74115 13.68165 29159 ft 458 kts 106°
2026-05-04 13:14 40.72195 13.76191 29152 ft 459 kts 106°
2026-05-04 13:15 40.70266 13.84203 29152 ft 459 kts 107°
2026-05-04 13:15 40.68327 13.92215 29160 ft 458 kts 106°
2026-05-04 13:16 40.66392 14.00204 29166 ft 458 kts 106°
2026-05-04 13:16 40.64450 14.08193 29166 ft 458 kts 106°
2026-05-04 13:17 40.62499 14.16171 29163 ft 457 kts 107°
2026-05-04 13:17 40.60503 14.24073 29173 ft 458 kts 111°
2026-05-04 13:17 40.59030 14.27784 29181 ft 457 kts 123°
2026-05-04 13:18 40.57068 14.31059 29185 ft 456 kts 135°
2026-05-04 13:18 40.54684 14.33792 29183 ft 452 kts 147°
2026-05-04 13:18 40.51991 14.35875 29176 ft 448 kts 158°
2026-05-04 13:19 40.46133 14.38489 29162 ft 443 kts 166°
2026-05-04 13:19 40.40237 14.40906 29144 ft 444 kts 167°
2026-05-04 13:20 40.34322 14.43332 29141 ft 445 kts 167°
2026-05-04 13:20 40.28449 14.45737 29142 ft 445 kts 167°
2026-05-04 13:21 40.22531 14.48147 29144 ft 445 kts 167°
2026-05-04 13:21 40.16602 14.50567 29130 ft 446 kts 167°
2026-05-04 13:22 40.10668 14.52983 29135 ft 447 kts 167°
2026-05-04 13:22 40.04724 14.55397 29132 ft 447 kts 167°
2026-05-04 13:23 39.98780 14.57806 29136 ft 447 kts 167°
2026-05-04 13:23 39.92829 14.60208 29129 ft 448 kts 167°
2026-05-04 13:24 39.86914 14.62602 29130 ft 448 kts 167°
2026-05-04 13:24 39.80952 14.65018 29132 ft 449 kts 167°
2026-05-04 13:25 39.72000 14.68617 29134 ft 449 kts 167°
2026-05-04 13:25 39.66026 14.71009 29136 ft 449 kts 167°
2026-05-04 13:26 39.60054 14.73399 29132 ft 449 kts 167°
2026-05-04 13:26 39.54073 14.75792 29134 ft 450 kts 167°
2026-05-04 13:27 39.48089 14.78189 29070 ft 452 kts 167°
2026-05-04 13:27 39.45076 14.79393 28795 ft 453 kts 167°
2026-05-04 13:27 39.42065 14.80594 28527 ft 453 kts 167°
2026-05-04 13:28 39.39059 14.81794 28264 ft 451 kts 167°
2026-05-04 13:28 39.36062 14.82987 27999 ft 449 kts 167°
2026-05-04 13:28 39.33096 14.84164 27520 ft 445 kts 167°
2026-05-04 13:28 39.30139 14.85335 26947 ft 442 kts 167°
2026-05-04 13:29 39.27250 14.86479 26414 ft 439 kts 167°
2026-05-04 13:29 39.24341 14.87633 25887 ft 436 kts 167°
2026-05-04 13:29 39.21454 14.88777 25379 ft 433 kts 167°
2026-05-04 13:29 39.18583 14.89913 24872 ft 430 kts 166°
2026-05-04 13:30 39.15726 14.91040 24370 ft 427 kts 166°
2026-05-04 13:30 39.12886 14.92161 23866 ft 425 kts 166°
2026-05-04 13:30 39.10062 14.93274 23283 ft 423 kts 166°
2026-05-04 13:30 39.07254 14.94379 22783 ft 420 kts 166°
2026-05-04 13:31 39.04469 14.95475 22266 ft 418 kts 166°
2026-05-04 13:31 39.01691 14.96568 21752 ft 415 kts 166°
2026-05-04 13:31 38.98966 14.97639 21237 ft 413 kts 166°
2026-05-04 13:31 38.96223 14.98716 20715 ft 411 kts 166°
2026-05-04 13:32 38.93494 14.99790 20181 ft 410 kts 166°
2026-05-04 13:32 38.90777 15.00859 19753 ft 405 kts 166°
2026-05-04 13:32 38.88080 15.01917 19264 ft 403 kts 165°
2026-05-04 13:32 38.85420 15.02962 18846 ft 398 kts 165°
2026-05-04 13:33 38.83665 15.03649 18529 ft 397 kts 165°
2026-05-04 13:33 38.81041 15.04675 17921 ft 392 kts 165°
2026-05-04 13:33 38.78442 15.05690 17233 ft 389 kts 165°
2026-05-04 13:33 38.75868 15.06700 16741 ft 385 kts 165°
2026-05-04 13:34 38.73318 15.07698 16256 ft 382 kts 165°
2026-05-04 13:34 38.70839 15.08875 15789 ft 380 kts 155°
2026-05-04 13:34 38.68609 15.10670 15338 ft 378 kts 142°
2026-05-04 13:34 38.66602 15.12822 14967 ft 372 kts 141°
2026-05-04 13:35 38.64667 15.14913 14836 ft 353 kts 141°
2026-05-04 13:35 38.61072 15.18790 14135 ft 330 kts 141°
2026-05-04 13:35 38.59327 15.20663 13573 ft 325 kts 141°
2026-05-04 13:36 38.57622 15.22486 12987 ft 321 kts 141°
2026-05-04 13:36 38.55895 15.24334 12432 ft 317 kts 141°
2026-05-04 13:36 38.54216 15.26128 11952 ft 314 kts 141°
2026-05-04 13:36 38.52568 15.27892 11629 ft 311 kts 141°
2026-05-04 13:37 38.50907 15.29668 11245 ft 310 kts 140°
2026-05-04 13:37 38.49248 15.31443 10818 ft 311 kts 140°
2026-05-04 13:37 38.47603 15.33208 10453 ft 306 kts 140°
2026-05-04 13:37 38.45977 15.34952 9925 ft 304 kts 140°
2026-05-04 13:38 38.44363 15.36681 9323 ft 303 kts 140°
2026-05-04 13:38 38.42757 15.38397 8929 ft 300 kts 140°
2026-05-04 13:38 38.41146 15.40114 8383 ft 303 kts 141°
2026-05-04 13:38 38.39532 15.41831 7931 ft 301 kts 141°
2026-05-04 13:39 38.37941 15.43523 7485 ft 293 kts 141°
2026-05-04 13:39 38.36407 15.45157 7065 ft 282 kts 141°
2026-05-04 13:39 38.34920 15.46740 6568 ft 276 kts 142°
2026-05-04 13:39 38.33460 15.48293 6088 ft 269 kts 141°
2026-05-04 13:40 38.32050 15.49790 5682 ft 258 kts 141°
2026-05-04 13:40 38.30696 15.51230 5308 ft 249 kts 142°
2026-05-04 13:40 38.29401 15.52605 4960 ft 242 kts 142°
2026-05-04 13:40 38.28080 15.53902 4587 ft 239 kts 152°
2026-05-04 13:41 38.26530 15.54529 4264 ft 233 kts 174°
2026-05-04 13:41 38.24919 15.54709 3951 ft 232 kts 175°
2026-05-04 13:41 38.23316 15.54896 3636 ft 231 kts 173°
2026-05-04 13:42 38.20394 15.56501 3013 ft 230 kts 152°
2026-05-04 13:42 38.18973 15.57430 2702 ft 230 kts 152°
2026-05-04 13:42 38.17550 15.58359 2373 ft 230 kts 152°
2026-05-04 13:42 38.16150 15.59270 2040 ft 221 kts 151°
2026-05-04 13:43 38.14811 15.60141 1736 ft 211 kts 152°
2026-05-04 13:43 38.13525 15.60976 1441 ft 204 kts 151°
2026-05-04 13:43 38.12303 15.61770 1160 ft 193 kts 152°
2026-05-04 13:43 38.11144 15.62524 871 ft 180 kts 153°
2026-05-04 13:44 38.10085 15.63219 690 ft 159 kts 153°
2026-05-04 13:44 38.09148 15.63847 437 ft 147 kts 154°
2026-05-04 13:44 38.08272 15.64426 181 ft 136 kts 157°
2026-05-04 13:44 38.07469 15.64935 55 ft 116 kts 154°
2026-05-04 13:45 38.06968 15.65255 37 ft 36 kts 153°
2026-05-04 13:45 38.06758 15.65392 34 ft 33 kts 153°
2026-05-04 13:45 38.06566 15.65517 33 ft 20 kts 153°
2026-05-04 13:45 38.06489 15.65638 32 ft 14 kts 130°
2026-05-04 13:46 38.06465 15.65585 32 ft 12 kts 313°
2026-05-04 13:46 38.06548 15.65527 32 ft 15 kts 332°
2026-05-04 13:46 38.06648 15.65463 33 ft 17 kts 334°
2026-05-04 13:46 38.06755 15.65396 34 ft 17 kts 333°
2026-05-04 13:47 38.06863 15.65325 35 ft 18 kts 333°
2026-05-04 13:47 38.06984 15.65247 38 ft 20 kts 333°
2026-05-04 13:47 38.07117 15.65161 42 ft 22 kts 333°
2026-05-04 13:47 38.07245 15.65080 46 ft 15 kts 341°
2026-05-04 13:48 38.07307 15.65148 50 ft 11 kts 61°
2026-05-04 13:48 38.07340 15.65225 50 ft 8 kts 62°
2026-05-04 13:48 38.07363 15.65283 49 ft 6 kts 63°
2026-05-04 13:48 38.07361 15.65306 49 ft 2 kts 131°
2026-05-04 13:49 38.07357 15.65308 49 ft 0 kts 150°
2026-05-04 13:49 38.07357 15.65309 49 ft 0 kts 141°
2026-05-04 13:49 38.07356 15.65310 49 ft 0 kts 134°
2026-05-04 13:52 38.07357 15.65310 50 ft 0 kts 134°
2026-05-04 13:53 38.07356 15.65310 50 ft 0 kts 134°
2026-05-04 13:53 38.07357 15.65310 50 ft 0 kts 134°